Location: Newark
(49.5042°N, 20.1881°E)
Time: 08:34:25
(UTC+00:00)

N. Korean satellite - Visible Passes

Search period start: 01 October 2020 00:00
Search period end: 11 October 2020 00:00
Orbit: 454 x 503 km, 97.2° (Epoch: 30 September)

Date Brightness Start Highest point End Pass type
(mag) Time Alt. Az. Time Alt. Az. Time Alt. Az.
02 Oct 8.5 03:50:12 10° NNE 03:53:33 35° E 03:56:50 10° SSE visible
03 Oct 9.7 03:24:44 10° NE 03:27:20 19° E 03:29:53 10° SE visible
05 Oct 7.5 04:05:15 10° NNE 04:08:46 53° E 04:12:13 10° S visible
06 Oct 9.0 03:39:31 10° NE 03:42:36 27° E 03:45:37 10° SSE visible
07 Oct 9.9 03:14:20 10° NE 03:16:19 14° E 03:18:16 10° ESE visible
08 Oct 10.4 16:34:43 10° WSW 16:36:29 13° W 16:38:15 10° WNW visible
09 Oct 8.1 03:54:26 10° NNE 03:57:48 39° E 04:01:05 10° SSE visible
10 Oct 9.5 03:28:51 10° NE 03:31:33 20° E 03:34:13 10° SE visible
